FW6178 Weather Reports


Display with metric or nautical units.
time (UTC)temp
F
wind
direction
speed
MPH
gust
MPH
rain 1hr
in
rain 24hr
in
rain mn
in
humidity
%
barometer
mb
20260506173039 61 301 0.0 1.0 0.00 0.00 0.00 45 1014.4
20260506171535 60 0 0.0 4.0 0.00 0.00 0.00 54 1014.6
20260506170036 58 0 0.0 2.0 0.00 0.00 0.00 53 1014.7
20260506164533 57 19 0.0 2.0 0.00 0.00 0.00 50 1014.9
20260506163044 56 0 0.0 2.0 0.00 0.00 0.00 57 1015.2
20260506161544 55 0 0.0 1.0 0.00 0.00 0.00 55 1015.2
20260506160040 54 18 0.0 1.0 0.00 0.00 0.00 55 1015.2
20260506154540 53 0 0.0 1.0 0.00 0.00 0.00 58 1015.5
20260506153042 51 18 0.0 1.0 0.00 0.00 0.00 60 1015.5
20260506151534 51 0 0.0 1.0 0.00 0.00 0.00 60 1015.6
20260506150043 50 0 0.0 1.0 0.00 0.00 0.00 63 1015.6
20260506144558 48 0 0.0 1.0 0.00 0.00 0.00 66 1015.7
20260506143046 47 5 0.0 1.0 0.00 0.00 0.00 70 1015.6
20260506141535 43 0 0.0 0.0 0.00 0.00 0.00 80 1015.7
20260506140053 41 0 0.0 0.0 0.00 0.00 0.00 88 1015.7
20260506134537 38 0 0.0 0.0 0.00 0.00 0.00 90 1015.7
20260506133040 36 0 0.0 0.0 0.00 0.00 0.00 91 1015.8
20260506131543 35 0 0.0 0.0 0.00 0.00 0.00 91 1015.7
20260506130045 34 0 0.0 0.0 0.00 0.00 0.00 91 1015.7
20260506124535 34 0 0.0 0.0 0.00 0.00 0.00 90 1015.6
20260506123039 34 0 0.0 0.0 0.00 0.00 0.00 90 1015.5
20260506121534 34 0 0.0 0.0 0.00 0.00 0.00 90 1015.5
20260506120037 34 0 0.0 0.0 0.00 0.00 0.00 90 1015.5
20260506114535 35 0 0.0 0.0 0.00 0.00 0.00 89 1015.4
20260506113039 35 0 0.0 0.0 0.00 0.00 0.00 90 1015.4
20260506111536 35 0 0.0 0.0 0.00 0.00 0.00 89 1015.4
20260506110040 35 0 0.0 0.0 0.00 0.00 0.00 89 1015.3
20260506104539 36 0 0.0 0.0 0.00 0.00 0.00 89 1015.2
20260506103035 36 0 0.0 0.0 0.00 0.00 0.00 89 1015.1
20260506101536 36 0 0.0 0.0 0.00 0.00 0.00 88 1015.1
20260506100037 37 0 0.0 0.0 0.00 0.00 0.00 88 1015.0
20260506094534 37 0 0.0 0.0 0.00 0.00 0.00 88 1014.9
20260506093042 37 0 0.0 0.0 0.00 0.00 0.00 88 1014.9
20260506091539 38 0 0.0 0.0 0.00 0.00 0.00 87 1015.0
20260506090040 38 0 0.0 0.0 0.00 0.00 0.00 87 1015.0
20260506084538 38 0 0.0 0.0 0.00 0.00 0.00 86 1014.9
20260506083035 39 0 0.0 0.0 0.00 0.00 0.00 86 1015.0
20260506081536 39 0 0.0 0.0 0.00 0.00 0.00 85 1014.9
20260506073037 40 0 0.0 0.0 0.00 0.00 0.00 82 1014.5
20260506071534 41 0 0.0 0.0 0.00 0.00 0.00 83 1014.4
20260506061543 44 0 0.0 1.0 0.00 0.00 0.00 78 1014.2
20260506044546 48 0 0.0 1.0 0.00 0.00 0.00 70 1013.1
20260506043035 49 0 0.0 1.0 0.00 0.00 0.00 67 1013.0
20260506041536 50 0 0.0 1.0 0.00 0.00 0.00 69 1012.8
20260506040042 51 0 0.0 1.0 0.00 0.00 0.00 68 1012.5
20260506034545 52 0 0.0 0.0 0.00 0.00 0.00 72 1012.2
20260506033035 54 0 0.0 0.0 0.00 0.00 0.00 59 1011.9
20260506031544 57 0 0.0 1.0 0.00 0.00 0.00 53 1011.8
20260506030044 59 0 0.0 1.0 0.00 0.00 0.00 49 1011.8
20260506024550 60 0 0.0 0.0 0.00 0.00 0.00 47 1011.7
20260506023042 63 0 0.0 0.0 0.00 0.00 0.00 44 1011.6
20260506021537 66 0 0.0 0.0 0.00 0.00 0.00 43 1011.5
20260506020042 68 0 0.0 0.0 0.00 0.00 0.00 38 1011.5
20260506014543 70 0 0.0 1.0 0.00 0.00 0.00 36 1011.5
20260506013035 70 330 0.0 1.0 0.00 0.00 0.00 31 1011.5
20260506011543 70 0 0.0 3.0 0.00 0.00 0.00 34 1011.4
20260506010053 70 0 0.0 2.0 0.00 0.00 0.00 31 1011.5
20260506004536 69 45 1.0 4.0 0.00 0.00 0.00 30 1011.5
20260506003036 69 53 1.0 4.0 0.00 0.00 0.00 30 1011.8
20260506001535 70 44 1.0 4.0 0.00 0.00 0.00 31 1011.9
20260506000034 70 46 2.0 4.0 0.00 0.00 0.00 28 1012.3
20260505234540 70 51 3.0 6.0 0.00 0.00 0.00 30 1012.3
20260505233046 70 30 3.0 6.0 0.00 0.00 0.00 31 1012.5
20260505231537 71 39 0.0 4.0 0.00 0.00 0.00 29 1012.8
20260505230040 70 18 1.0 5.0 0.00 0.00 0.00 31 1012.8
20260505224541 70 81 2.0 6.0 0.00 0.00 0.00 30 1012.9
20260505223045 70 328 1.0 6.0 0.00 0.00 0.00 32 1013.1
20260505221543 69 84 3.0 7.0 0.00 0.00 0.00 30 1013.3
20260505220040 70 40 2.0 8.0 0.00 0.00 0.00 31 1013.4
20260505214536 69 53 4.0 9.0 0.00 0.00 0.00 31 1013.5
20260505213035 69 18 1.0 7.0 0.00 0.00 0.00 32 1013.9
20260505211535 69 47 0.0 6.0 0.00 0.00 0.00 37 1014.0
20260505210034 68 43 2.0 8.0 0.00 0.00 0.00 33 1014.2
20260505204541 68 64 3.0 9.0 0.00 0.00 0.00 33 1014.4
20260505203038 68 49 3.0 9.0 0.00 0.00 0.00 31 1014.7
20260505201548 67 75 5.0 10.0 0.00 0.00 0.00 33 1014.7
20260505200034 67 67 3.0 9.0 0.00 0.00 0.00 35 1014.8
20260505194542 67 95 4.0 8.0 0.00 0.00 0.00 35 1015.0
20260505193042 67 39 2.0 5.0 0.00 0.00 0.00 34 1014.8
20260505191536 67 339 1.0 5.0 0.00 0.00 0.00 34 1014.9
20260505190038 66 345 1.0 5.0 0.00 0.00 0.00 36 1014.9
20260505184537 65 25 1.0 6.0 0.00 0.00 0.00 33 1015.1
20260505183049 64 356 2.0 6.0 0.00 0.00 0.00 34 1015.1
20260505181540 64 7 2.0 4.0 0.00 0.00 0.00 35 1015.3
20260505180042 63 46 2.0 5.0 0.00 0.00 0.00 37 1015.3
20260505174537 63 2 1.0 5.0 0.00 0.00 0.00 35 1015.4